TimeEDT,TemperatureF,Dew PointF,Humidity,Sea Level PressureIn,VisibilityMPH,Wind Direction,Wind SpeedMPH,Gust SpeedMPH,PrecipitationIn,Events,Conditions,WindDirDegrees,DateUTC
12:15 AM,46.4,-9999,N/A,29.91,2.0,East,8.1,-,N/A,,Overcast,80,2013-03-24 04:15:00
12:35 AM,48.2,-9999,N/A,29.92,2.5,ENE,4.6,-,N/A,,Overcast,70,2013-03-24 04:35:00
12:55 AM,48.2,-9999,N/A,29.92,2.0,ENE,4.6,-,N/A,,Overcast,60,2013-03-24 04:55:00
1:15 AM,46.4,-9999,N/A,29.91,2.5,East,6.9,-,N/A,Rain,Rain,80,2013-03-24 05:15:00
1:35 AM,48.2,-9999,N/A,29.90,5.0,East,4.6,-,N/A,Rain,Rain,80,2013-03-24 05:35:00
2:15 AM,46.4,-9999,N/A,29.83,7.0,East,10.4,-,N/A,Rain,Rain,80,2013-03-24 06:15:00
2:35 AM,46.4,-9999,N/A,29.81,7.0,ENE,8.1,-,N/A,Rain,Light Rain,70,2013-03-24 06:35:00
2:55 AM,46.4,-9999,N/A,29.79,7.0,ENE,9.2,-,N/A,Rain,Rain,60,2013-03-24 06:55:00
3:15 AM,46.4,-9999,N/A,29.77,7.0,ENE,11.5,-,N/A,Rain,Light Rain,70,2013-03-24 07:15:00
3:35 AM,46.4,-9999,N/A,29.76,7.0,ENE,9.2,-,N/A,Rain-Thunderstorm,Light Thunderstorms and Rain,70,2013-03-24 07:35:00
4:15 AM,46.4,-9999,N/A,29.71,5.0,ENE,13.8,-,N/A,Rain-Thunderstorm,Thunderstorms and Rain,60,2013-03-24 08:15:00
4:35 AM,46.4,-9999,N/A,29.72,5.0,ENE,12.7,18.4,N/A,Rain-Thunderstorm,Heavy Thunderstorms and Rain,60,2013-03-24 08:35:00
5:15 AM,46.4,-9999,N/A,29.76,4.0,NE,10.4,-,N/A,Rain-Thunderstorm,Rain,40,2013-03-24 09:15:00
5:35 AM,46.4,-9999,N/A,29.73,2.5,NNE,12.7,-,N/A,Thunderstorm,Unknown,30,2013-03-24 09:35:00
5:55 AM,46.4,-9999,N/A,29.77,3.0,North,11.5,18.4,N/A,Rain-Thunderstorm,Light Thunderstorms and Rain,10,2013-03-24 09:55:00
6:15 AM,46.4,-9999,N/A,29.71,5.0,NE,17.3,25.3,N/A,Rain-Thunderstorm,Light Thunderstorms and Rain,50,2013-03-24 10:15:00
6:35 AM,46.4,-9999,N/A,29.72,3.0,NE,15.0,-,N/A,Rain-Thunderstorm,Heavy Thunderstorms and Rain,50,2013-03-24 10:35:00
6:55 AM,46.4,-9999,N/A,29.71,2.5,ENE,17.3,23.0,N/A,Thunderstorm,Unknown,70,2013-03-24 10:55:00
7:15 AM,46.4,-9999,N/A,29.66,1.8,ENE,18.4,24.2,N/A,Rain-Thunderstorm,Light Thunderstorms and Rain,60,2013-03-24 11:15:00
7:35 AM,46.4,-9999,N/A,29.67,10.0,East,13.8,-,N/A,Rain-Thunderstorm,Light Thunderstorms and Rain,80,2013-03-24 11:35:00
8:15 AM,46.4,-9999,N/A,29.65,10.0,ENE,12.7,-,N/A,Rain-Thunderstorm,Rain,60,2013-03-24 12:15:00
8:35 AM,46.4,-9999,N/A,29.62,10.0,East,13.8,18.4,N/A,Thunderstorm,Overcast,80,2013-03-24 12:35:00
8:55 AM,46.4,-9999,N/A,29.63,10.0,East,10.4,-,N/A,Thunderstorm,Overcast,90,2013-03-24 12:55:00
9:15 AM,48.2,-9999,N/A,29.61,10.0,East,13.8,21.9,N/A,,Overcast,90,2013-03-24 13:15:00
9:35 AM,48.2,-9999,N/A,29.61,10.0,East,9.2,-,N/A,Rain,Light Rain,100,2013-03-24 13:35:00
9:55 AM,48.2,-9999,N/A,29.66,10.0,North,11.5,-,N/A,Rain,Rain,350,2013-03-24 13:55:00
10:15 AM,48.2,-9999,N/A,29.65,10.0,NNE,5.8,-,N/A,,Drizzle,20,2013-03-24 14:15:00
10:35 AM,48.2,-9999,N/A,29.62,10.0,North,8.1,-,N/A,,Drizzle,10,2013-03-24 14:35:00
10:55 AM,48.2,-9999,N/A,29.62,7.0,NNE,6.9,-,N/A,,Light Drizzle,30,2013-03-24 14:55:00
11:15 AM,48.2,-9999,N/A,29.61,10.0,NNE,9.2,-,N/A,,Light Drizzle,30,2013-03-24 15:15:00
11:35 AM,48.2,-9999,N/A,29.61,7.0,NNE,9.2,-,N/A,,Drizzle,30,2013-03-24 15:35:00
11:55 AM,48.2,-9999,N/A,29.63,7.0,NNE,10.4,-,N/A,,Light Drizzle,20,2013-03-24 15:55:00
12:15 PM,48.2,-9999,N/A,29.63,7.0,North,9.2,-,N/A,Rain,Rain,350,2013-03-24 16:15:00
12:35 PM,46.4,-9999,N/A,29.61,5.0,North,9.2,-,N/A,,Light Drizzle,10,2013-03-24 16:35:00
12:55 PM,46.4,-9999,N/A,29.62,4.0,North,9.2,-,N/A,,Light Drizzle,10,2013-03-24 16:55:00
1:15 PM,46.4,-9999,N/A,29.63,2.5,North,10.4,17.3,N/A,,Light Drizzle,360,2013-03-24 17:15:00
1:35 PM,46.4,-9999,N/A,29.63,3.0,North,9.2,-,N/A,,Light Drizzle,360,2013-03-24 17:35:00
1:55 PM,46.4,-9999,N/A,29.62,2.5,North,12.7,16.1,N/A,,Drizzle,350,2013-03-24 17:55:00
2:15 PM,46.4,-9999,N/A,29.62,3.0,North,9.2,-,N/A,,Overcast,360,2013-03-24 18:15:00
2:35 PM,46.4,-9999,N/A,29.62,7.0,North,15.0,-,N/A,,Overcast,10,2013-03-24 18:35:00
2:55 PM,46.4,-9999,N/A,29.62,10.0,North,9.2,-,N/A,,Overcast,350,2013-03-24 18:55:00
3:15 PM,46.4,46.4,100,29.59,10.0,North,11.5,-,N/A,,Overcast,360,2013-03-24 19:15:00
3:55 PM,46.4,-9999,N/A,29.59,10.0,North,9.2,-,N/A,,Overcast,10,2013-03-24 19:55:00
4:15 PM,46.4,46.4,100,29.59,10.0,North,8.1,-,N/A,,Overcast,10,2013-03-24 20:15:00
4:35 PM,44.6,44.6,100,29.61,10.0,NNW,8.1,-,N/A,,Overcast,340,2013-03-24 20:35:00
4:55 PM,46.4,46.4,100,29.62,10.0,NNW,5.8,-,N/A,,Overcast,340,2013-03-24 20:55:00
5:15 PM,44.6,44.6,100,29.63,7.0,NNW,6.9,-,N/A,,Overcast,330,2013-03-24 21:15:00
5:35 PM,44.6,-9999,N/A,29.63,2.5,NW,6.9,-,N/A,,Overcast,310,2013-03-24 21:35:00
5:55 PM,44.6,-9999,N/A,29.61,4.0,North,3.5,-,N/A,,Haze,360,2013-03-24 21:55:00
6:15 PM,44.6,-9999,N/A,29.61,10.0,North,4.6,-,N/A,,Overcast,10,2013-03-24 22:15:00
6:35 PM,44.6,-9999,N/A,29.62,10.0,North,4.6,-,N/A,,Overcast,350,2013-03-24 22:35:00
6:55 PM,44.6,-9999,N/A,29.62,10.0,NNW,3.5,-,N/A,,Overcast,330,2013-03-24 22:55:00
7:15 PM,44.6,-9999,N/A,29.64,7.0,Calm,Calm,-,N/A,,Overcast,0,2013-03-24 23:15:00
7:35 PM,44.6,-9999,N/A,29.64,7.0,Calm,Calm,-,N/A,,Overcast,0,2013-03-24 23:35:00
8:15 PM,44.6,-9999,N/A,29.63,10.0,Calm,Calm,-,N/A,,Overcast,0,2013-03-25 00:15:00
8:35 PM,44.6,-9999,N/A,29.64,10.0,Calm,Calm,-,N/A,,Overcast,0,2013-03-25 00:35:00
9:15 PM,44.6,-9999,N/A,29.63,10.0,Calm,Calm,-,N/A,,Overcast,0,2013-03-25 01:15:00
9:35 PM,44.6,-9999,N/A,29.62,10.0,East,6.9,-,N/A,,Overcast,80,2013-03-25 01:35:00
9:55 PM,44.6,-9999,N/A,29.62,10.0,ENE,3.5,-,N/A,,Overcast,70,2013-03-25 01:55:00
10:15 PM,44.6,-9999,N/A,29.61,10.0,ENE,4.6,-,N/A,,Overcast,70,2013-03-25 02:15:00
10:35 PM,44.6,-9999,N/A,29.61,10.0,Calm,Calm,-,N/A,,Overcast,0,2013-03-25 02:35:00
10:55 PM,44.6,-9999,N/A,29.62,7.0,North,3.5,-,N/A,,Overcast,360,2013-03-25 02:55:00
11:15 PM,44.6,-9999,N/A,29.63,10.0,Calm,Calm,-,N/A,,Overcast,0,2013-03-25 03:15:00
11:35 PM,44.6,-9999,N/A,29.63,10.0,Calm,Calm,-,N/A,,Overcast,0,2013-03-25 03:35:00
11:55 PM,44.6,-9999,N/A,29.64,10.0,WSW,4.6,-,N/A,,Overcast,250,2013-03-25 03:55:00